Location: Stamford Observatory
(41.1241°N, 73.5498°W)
Time: 20:15:59
(UTC-04:00)

IRS-P3 - Visible Passes

Search period start: 30 March 2015 00:00
Search period end: 09 April 2015 00:00
Orbit: 815 x 819 km, 98.7° (Epoch: 29 March)

Date Brightness Start Highest point End Pass type
(mag) Time Alt. Az. Time Alt. Az. Time Alt. Az.
30 Mar 6.4 02:26:24 10° NNE 02:28:03 20° NNE 02:28:03 20° NNE visible
30 Mar 6.2 04:07:54 10° NNW 04:09:21 14° NW 04:09:21 14° NW visible
31 Mar 6.6 02:05:03 10° NNE 02:06:21 17° NNE 02:06:21 17° NNE visible
31 Mar 6.0 03:45:37 10° NNW 03:47:39 19° NNW 03:47:39 19° NNW visible
01 Apr 6.8 01:43:55 10° NE 01:44:39 13° NE 01:44:39 13° NE visible
01 Apr 5.9 03:23:39 10° N 03:25:57 24° NNW 03:25:57 24° NNW visible
02 Apr 5.8 03:01:52 10° N 03:04:15 27° N 03:04:15 27° N visible
03 Apr 6.0 02:40:15 10° NNE 02:42:33 27° NNE 02:42:33 27° NNE visible
03 Apr 6.3 04:22:36 10° NNW 04:23:51 12° NW 04:23:51 12° NW visible
04 Apr 6.2 02:18:47 10° NNE 02:20:51 24° NNE 02:20:51 24° NNE visible
04 Apr 6.0 03:59:55 10° NNW 04:02:09 17° NW 04:02:09 17° NW visible
05 Apr 6.4 01:57:30 10° NNE 01:59:09 19° NE 01:59:09 19° NE visible
05 Apr 5.8 03:37:46 10° N 03:40:27 23° NNW 03:40:27 23° NNW visible
06 Apr 6.7 01:36:29 10° NE 01:37:27 14° NE 01:37:27 14° NE visible
06 Apr 5.6 03:15:52 10° N 03:18:45 29° NNW 03:18:45 29° NNW visible
07 Apr 5.5 02:54:09 10° N 02:57:03 33° N 02:57:03 33° N visible
08 Apr 5.7 02:32:34 10° NNE 02:35:20 32° NNE 02:35:20 32° NNE visible
08 Apr 6.1 04:14:25 10° NNW 04:16:39 15° NW 04:16:39 15° NW visible
